Weather History for Marrakech, Morocco

Change the Weather History Date:

Monday, May 26, 2014

  Actual Average Record
Temperature  
Mean Temperature 68 °F -  
Max Temperature 79 °F 89 °F 102 °F (2001)
Min Temperature 57 °F 62 °F 53 °F (2013)
Cooling Degree Days 3    
Growing Degree Days 18 (Base 50)    
Moisture  
Dew Point 49 °F    
Average Humidity 53    
Maximum Humidity 72    
Minimum Humidity 20    
Precipitation  
Precipitation 0.00 in 0.01 in - ()
Sea Level Pressure  
Sea Level Pressure 30.08 in    
Wind  
Wind Speed 8 mph ()    
Max Wind Speed 16 mph    
Max Gust Speed 20 mph    
Visibility 6.1 miles    
Events      
Averages and records for this station are not official NWS values.
T = Trace of Precipitation, MM = Missing Value Source: Averaged Metar Reports

Daily Weather History Graph

Daily Weather History Graph

Search for Another Location

Airport:

Trip Planner

Search our weather history database for the weather conditions in past years. The results will help you decide how hot, cold, wet, or windy it might be!

Date:

Astronomy

May. 26, 2014 Rise Set
Actual Time 6:29 AM WEST 8:28 PM WEST
Civil Twilight 6:02 AM WEST 8:56 PM WEST
Nautical Twilight 5:29 AM WEST 9:29 PM WEST
Astronomical Twilight 4:54 AM WEST 10:04 PM WEST
Moon 4:53 AM WEST (5/26) 6:25 PM WEST (5/26)
Length of Visible Light 14h 53m
Length of Day
13h 58m
Waning Crescent, 6% of the Moon is Illuminated
May 26
Waning Crescent
May 28
New
Jun 5
First Quarter
Jun 13
Full
Jun 19
Last Quarter

Hourly Weather History & Observations

Time (WEST) Temp. Dew Point Humidity Pressure Visibility Wind Dir Wind Speed Gust Speed Precip Events Conditions
12:00 AM 62.6 °F 48.2 °F 59% 30.09 in - NNE 12.7 mph - N/A   Clear
12:30 AM 60.8 °F 50.0 °F 68% 30.09 in - NNE 11.5 mph - N/A   Clear
1:00 AM 60 °F 50 °F 60% 30.07 in 6 mi NNE 10.4 mph - -  
1:00 AM 60.8 °F 50.0 °F 68% 30.09 in - NNE 10.4 mph - N/A   Clear
1:30 AM 59.0 °F 50.0 °F 72% 30.09 in - NE 12.7 mph - N/A   Clear
2:00 AM 59.0 °F 50.0 °F 72% 30.09 in - NE 10.4 mph - N/A   Clear
2:30 AM 59.0 °F 48.2 °F 67% 30.09 in 6.2 mi NE 10.4 mph - N/A   Unknown
3:00 AM 59.0 °F 48.2 °F 67% 30.09 in - NNE 8.1 mph - N/A   Clear
3:30 AM 57.2 °F 48.2 °F 72% 30.09 in - NNE 9.2 mph - N/A   Clear
4:00 AM 57 °F 48 °F 65% 30.09 in 6 mi NNE 10.4 mph - -  
4:00 AM 57.2 °F 48.2 °F 72% 30.09 in 6.2 mi NE 10.4 mph - N/A   Unknown
4:30 AM 57.2 °F 48.2 °F 72% 30.09 in 6.2 mi NNE 9.2 mph - N/A   Unknown
5:00 AM 57.2 °F 48.2 °F 72% 30.09 in 6.2 mi NNE 6.9 mph - N/A   Scattered Clouds
5:30 AM 57.2 °F 48.2 °F 72% 30.09 in 6.2 mi NE 5.8 mph - N/A   Scattered Clouds
8:30 AM 59.0 °F 48.2 °F 67% 30.12 in 6.2 mi NE 5.8 mph - N/A   Scattered Clouds
9:00 AM 60.8 °F 50.0 °F 68% 30.15 in 6.2 mi NE 4.6 mph - N/A   Scattered Clouds
9:30 AM 62.6 °F 50.0 °F 63% 30.15 in - NE 4.6 mph - N/A   Clear
10:00 AM 63 °F 50 °F 52% 30.11 in 6 mi North 5.8 mph - -   Clear
10:00 AM 62.6 °F 50.0 °F 63% 30.12 in - North 5.8 mph - N/A   Clear
10:30 AM 64.4 °F 50.0 °F 59% 30.12 in 6.2 mi NNE 4.6 mph - N/A   Scattered Clouds
11:00 AM 66.2 °F 50.0 °F 56% 30.12 in 6.2 mi Variable 3.5 mph - N/A   Scattered Clouds
11:30 AM 66.2 °F 50.0 °F 56% 30.12 in 6.2 mi NNW 6.9 mph - N/A   Scattered Clouds
12:00 PM 68.0 °F 50.0 °F 52% 30.12 in 6.2 mi North 8.1 mph - N/A   Scattered Clouds
12:30 PM 69.8 °F 50.0 °F 49% 30.12 in 6.2 mi NNW 5.8 mph - N/A   Scattered Clouds
1:00 PM 70 °F 49 °F 36% 30.08 in 6 mi NNW 6.9 mph - -   Partly Cloudy
1:00 PM 69.8 °F 48.2 °F 46% 30.12 in 6.2 mi NNW 6.9 mph - N/A   Scattered Clouds
1:30 PM 71.6 °F 48.2 °F 43% 30.12 in 6.2 mi East 4.6 mph - N/A   Scattered Clouds
2:00 PM 73.4 °F 50.0 °F 44% 30.09 in 6.2 mi Variable 4.6 mph - N/A   Scattered Clouds
2:30 PM 75.2 °F 50.0 °F 41% 30.09 in 6.2 mi Variable 8.1 mph - N/A   Scattered Clouds
3:00 PM 75.2 °F 50.0 °F 41% 30.06 in 6.2 mi NE 5.8 mph 19.6 mph N/A   Scattered Clouds
3:30 PM 77.0 °F 48.2 °F 36% 30.06 in 6.2 mi Variable 6.9 mph - N/A   Scattered Clouds
4:00 PM 77 °F 48 °F 25% 29.99 in 6 mi ENE 5.8 mph - -   Partly Cloudy
4:00 PM 77.0 °F 48.2 °F 36% 30.06 in 6.2 mi NE 5.8 mph - N/A   Scattered Clouds
4:30 PM 78.8 °F 48.2 °F 34% 30.06 in 6.2 mi ENE 6.9 mph - N/A   Scattered Clouds
5:00 PM 78.8 °F 48.2 °F 34% 30.04 in 6.2 mi NE 8.1 mph - N/A   Scattered Clouds
5:30 PM 78.8 °F 48.2 °F 34% 30.04 in 6.2 mi NNE 9.2 mph - N/A   Scattered Clouds
6:00 PM 78.8 °F 46.4 °F 32% 30.04 in 6.2 mi Variable 3.5 mph - N/A   Scattered Clouds
6:30 PM 80.6 °F 48.2 °F 32% 30.04 in 6.2 mi ENE 3.5 mph - N/A   Scattered Clouds
7:00 PM 80 °F 46 °F 20% 29.96 in 6 mi ENE 3.5 mph - -   Partly Cloudy
7:00 PM 78.8 °F 46.4 °F 32% 30.04 in 6.2 mi Variable 2.3 mph - N/A   Scattered Clouds
7:30 PM 78.8 °F 46.4 °F 32% 30.04 in 6.2 mi North 6.9 mph - N/A   Scattered Clouds
8:00 PM 75.2 °F 51.8 °F 44% 30.04 in 5.0 mi North 15.0 mph - N/A   Scattered Clouds
8:30 PM 71.6 °F 50.0 °F 46% 30.04 in 6.2 mi North 16.1 mph - N/A   Scattered Clouds
9:00 PM 69.8 °F 50.0 °F 49% 30.06 in 6.2 mi North 16.1 mph - N/A   Scattered Clouds
9:30 PM 66.2 °F 50.0 °F 56% 30.09 in 6.2 mi NNE 11.5 mph - N/A   Scattered Clouds
10:00 PM 65 °F 50 °F 49% 30.07 in 6 mi NNE 15.0 mph - -   Partly Cloudy
10:00 PM 64.4 °F 50.0 °F 59% 30.09 in 6.2 mi NE 13.8 mph - N/A   Scattered Clouds
10:30 PM 62.6 °F 50.0 °F 63% 30.12 in 6.2 mi NE 10.4 mph - N/A   Scattered Clouds
11:00 PM 62.6 °F 50.0 °F 63% 30.12 in 6.2 mi NE 8.1 mph - N/A   Scattered Clouds
11:30 PM 62.6 °F 50.0 °F 63% 30.12 in 6.2 mi NNE 9.2 mph - N/A   Scattered Clouds